START_TIME,STEP,MOV.,AL01,t_acc.,AL02,t_acc.,E37,t_acc.,H21,t_acc.
1986-01-25 15:00:35.680 ,7,0,26.,24.0,0.,24.0,0.,24.0,0.,24.0
1986-01-25 15:00:59.680 ,6,1,31.,24.0,0.,24.0,0.,24.0,0.,24.0
1986-01-25 15:01:23.680 ,6,0,0.,24.0,0.,24.0,0.,24.0,0.,24.0
1986-01-25 15:01:47.680 ,5,1,0.,24.0,0.,24.0,0.,24.0,0.,24.0
1986-01-25 15:02:11.680 ,5,0,0.,24.0,0.,24.0,0.,24.0,0.,24.0
1986-01-25 15:02:35.680 ,4,1,0.,24.0,0.,24.0,0.,24.0,0.,24.0
1986-01-25 15:02:59.680 ,4,0,0.,24.0,0.,24.0,0.,24.0,0.,24.0
1986-01-25 15:03:23.680 ,3,1,0.,24.0,0.,24.0,0.,24.0,0.,24.0
1986-01-25 15:03:47.680 ,3,0,1.,24.0,0.,24.0,0.,24.0,0.,24.0
1986-01-25 15:04:11.680 ,2,1,0.,24.0,0.,24.0,0.,24.0,0.,24.0
1986-01-25 15:04:35.680 ,2,0,0.,24.0,0.,24.0,0.,24.0,0.,24.0
1986-01-25 15:04:59.680 ,1,1,0.,24.0,0.,24.0,0.,24.0,0.,24.0
1986-01-25 15:05:23.680 ,1,0,0.,24.0,0.,24.0,0.,24.0,0.,24.0
1986-01-25 15:05:47.680 ,0,1,0.,24.0,0.,24.0,0.,24.0,0.,24.0
1986-01-25 15:06:11.680 ,0,0,0.,24.0,0.,24.0,0.,24.0,0.,24.0
1986-01-25 15:06:35.680 ,0,1,0.,24.0,0.,24.0,0.,24.0,0.,24.0
1986-01-25 15:06:59.680 ,0,0,0.,24.0,0.,24.0,0.,24.0,0.,24.0
1986-01-25 15:07:23.680 ,1,1,0.,24.0,0.,24.0,0.,24.0,0.,24.0
1986-01-25 15:07:47.680 ,1,0,0.,24.0,0.,24.0,0.,24.0,0.,24.0
1986-01-25 15:08:11.680 ,2,1,0.,24.0,0.,24.0,0.,24.0,0.,24.0
1986-01-25 15:08:35.680 ,2,0,0.,24.0,0.,24.0,0.,24.0,0.,24.0
1986-01-25 15:08:59.680 ,3,1,0.,24.0,0.,24.0,0.,24.0,0.,24.0
1986-01-25 15:09:23.680 ,3,0,0.,24.0,0.,24.0,0.,24.0,0.,24.0
1986-01-25 15:09:47.680 ,4,1,0.,24.0,0.,24.0,0.,24.0,0.,24.0
1986-01-25 15:10:11.680 ,4,0,0.,24.0,0.,24.0,0.,24.0,0.,24.0
1986-01-25 15:10:35.680 ,5,1,0.,24.0,0.,24.0,0.,24.0,0.,24.0
1986-01-25 15:10:59.680 ,5,0,0.,24.0,0.,24.0,0.,24.0,0.,24.0
1986-01-25 15:11:23.680 ,6,1,0.,24.0,0.,24.0,0.,24.0,0.,24.0
1986-01-25 15:11:47.680 ,6,0,0.,24.0,0.,24.0,0.,24.0,0.,24.0
1986-01-25 15:12:11.680 ,7,1,10.,24.0,0.,24.0,0.,24.0,0.,24.0
1986-01-25 15:12:35.680 ,7,0,34.,24.0,0.,24.0,0.,24.0,0.,24.0
1986-01-25 15:12:59.680 ,7,1,31.,24.0,0.,24.0,0.,24.0,0.,24.0
1986-01-25 15:13:23.680 ,7,0,30.,24.0,0.,24.0,0.,24.0,0.,24.0
1986-01-25 15:13:47.680 ,6,1,19.,24.0,0.,24.0,0.,24.0,0.,24.0
1986-01-25 15:14:11.680 ,6,0,0.,24.0,0.,24.0,0.,24.0,0.,24.0
1986-01-25 15:14:35.680 ,5,1,0.,24.0,0.,24.0,0.,24.0,0.,24.0
1986-01-25 15:14:59.680 ,5,0,0.,24.0,0.,24.0,0.,24.0,0.,24.0
1986-01-25 15:15:23.680 ,4,1,0.,24.0,1.,24.0,0.,24.0,0.,24.0
1986-01-25 15:15:47.680 ,4,0,0.,24.0,0.,24.0,0.,24.0,0.,24.0
1986-01-25 15:16:11.680 ,3,1,0.,24.0,0.,24.0,0.,24.0,0.,24.0
1986-01-25 15:16:35.680 ,3,0,0.,24.0,0.,24.0,0.,24.0,0.,24.0
1986-01-25 15:16:59.680 ,2,1,0.,24.0,0.,24.0,0.,24.0,0.,24.0
1986-01-25 15:17:23.680 ,2,0,0.,24.0,0.,24.0,0.,24.0,0.,24.0
1986-01-25 15:17:47.680 ,1,1,0.,24.0,0.,24.0,0.,24.0,0.,24.0
1986-01-25 15:18:11.680 ,1,0,0.,24.0,0.,24.0,0.,24.0,0.,24.0
1986-01-25 15:18:35.680 ,0,1,0.,24.0,0.,24.0,0.,24.0,0.,24.0
1986-01-25 15:18:59.680 ,0,0,0.,24.0,0.,24.0,0.,24.0,0.,24.0
1986-01-25 15:19:23.680 ,0,1,0.,24.0,0.,24.0,0.,24.0,0.,24.0
1986-01-25 15:19:47.680 ,0,0,0.,24.0,0.,24.0,0.,24.0,0.,24.0
1986-01-25 15:20:11.680 ,1,1,0.,24.0,0.,24.0,0.,24.0,0.,24.0
1986-01-25 15:20:35.680 ,1,0,0.,24.0,0.,24.0,0.,24.0,0.,24.0
1986-01-25 15:20:59.680 ,2,1,0.,24.0,0.,24.0,0.,24.0,0.,24.0
1986-01-25 15:21:23.680 ,2,0,0.,24.0,0.,24.0,0.,24.0,0.,24.0
1986-01-25 15:21:47.680 ,3,1,0.,24.0,0.,24.0,0.,24.0,0.,24.0
1986-01-25 15:22:11.680 ,3,0,0.,24.0,0.,24.0,0.,24.0,0.,24.0
1986-01-25 15:22:35.680 ,4,1,0.,24.0,1.,24.0,0.,24.0,0.,24.0
1986-01-25 15:22:59.680 ,4,0,0.,24.0,0.,24.0,0.,24.0,0.,24.0
1986-01-25 15:23:23.680 ,5,1,0.,24.0,0.,24.0,0.,24.0,0.,24.0
1986-01-25 15:23:47.680 ,5,0,0.,24.0,0.,24.0,0.,24.0,0.,24.0
1986-01-25 15:24:11.680 ,6,1,1.,24.0,0.,24.0,0.,24.0,0.,24.0
1986-01-25 15:24:35.680 ,6,0,0.,24.0,1.,24.0,0.,24.0,0.,24.0
1986-01-25 15:24:59.680 ,7,1,8.,24.0,0.,24.0,0.,24.0,0.,24.0
1986-01-25 15:25:23.680 ,7,0,27.,24.0,0.,24.0,0.,24.0,0.,24.0
1986-01-25 15:25:47.680 ,7,1,31.,24.0,0.,24.0,0.,24.0,0.,24.0
1986-01-25 15:26:11.680 ,7,0,30.,24.0,1.,24.0,0.,24.0,0.,24.0
1986-01-25 15:26:35.680 ,6,1,19.,24.0,0.,24.0,0.,24.0,0.,24.0
1986-01-25 15:26:59.680 ,6,0,1.,24.0,0.,24.0,0.,24.0,0.,24.0
1986-01-25 15:27:23.680 ,5,1,0.,24.0,0.,24.0,0.,24.0,0.,24.0
1986-01-25 15:27:47.680 ,5,0,0.,24.0,0.,24.0,0.,24.0,0.,24.0
1986-01-25 15:28:11.680 ,4,1,0.,24.0,0.,24.0,0.,24.0,0.,24.0
1986-01-25 15:28:35.680 ,4,0,0.,24.0,0.,24.0,0.,24.0,0.,24.0
1986-01-25 15:28:59.680 ,3,1,0.,24.0,0.,24.0,0.,24.0,0.,24.0
1986-01-25 15:29:23.680 ,3,0,0.,24.0,0.,24.0,0.,24.0,0.,24.0
1986-01-25 15:29:47.680 ,2,1,0.,24.0,0.,24.0,0.,24.0,0.,24.0
1986-01-25 15:30:11.680 ,2,0,0.,24.0,0.,24.0,0.,24.0,0.,24.0
1986-01-25 15:30:35.680 ,1,1,0.,24.0,0.,24.0,0.,24.0,0.,24.0
1986-01-25 15:30:59.680 ,1,0,0.,24.0,0.,24.0,0.,24.0,0.,24.0
1986-01-25 15:31:23.680 ,0,1,0.,24.0,0.,24.0,0.,24.0,0.,24.0
1986-01-25 15:31:47.680 ,0,0,0.,24.0,0.,24.0,0.,24.0,0.,24.0
1986-01-25 15:32:11.680 ,0,1,0.,24.0,1.,24.0,0.,24.0,0.,24.0
1986-01-25 15:32:35.680 ,0,0,0.,24.0,0.,24.0,0.,24.0,0.,24.0
1986-01-25 15:32:59.680 ,1,1,0.,24.0,0.,24.0,0.,24.0,0.,24.0
1986-01-25 15:33:23.680 ,1,0,0.,24.0,0.,24.0,0.,24.0,0.,24.0
1986-01-25 15:33:47.680 ,2,1,0.,24.0,0.,24.0,0.,24.0,0.,24.0
1986-01-25 15:34:11.680 ,2,0,0.,24.0,0.,24.0,0.,24.0,0.,24.0
1986-01-25 15:34:35.680 ,3,1,1.,24.0,0.,24.0,0.,24.0,0.,24.0
1986-01-25 15:34:59.680 ,3,0,0.,24.0,0.,24.0,0.,24.0,0.,24.0
1986-01-25 15:35:23.680 ,4,1,1.,24.0,0.,24.0,0.,24.0,0.,24.0
1986-01-25 15:35:47.680 ,4,0,0.,24.0,0.,24.0,0.,24.0,0.,24.0
1986-01-25 15:36:11.680 ,5,1,0.,24.0,0.,24.0,0.,24.0,0.,24.0
1986-01-25 15:36:35.680 ,5,0,0.,24.0,0.,24.0,0.,24.0,0.,24.0
1986-01-25 15:36:59.680 ,6,1,1.,24.0,0.,24.0,0.,24.0,0.,24.0
1986-01-25 15:37:23.680 ,6,0,0.,24.0,0.,24.0,0.,24.0,0.,24.0
1986-01-25 15:37:47.680 ,7,1,8.,24.0,0.,24.0,0.,24.0,0.,24.0
1986-01-25 15:38:11.680 ,7,0,39.,24.0,0.,24.0,0.,24.0,0.,24.0
1986-01-25 15:38:35.680 ,7,1,28.,24.0,0.,24.0,0.,24.0,0.,24.0
1986-01-25 15:38:59.680 ,7,0,22.,24.0,0.,24.0,0.,24.0,0.,24.0
1986-01-25 15:39:23.680 ,6,1,19.,24.0,0.,24.0,0.,24.0,0.,24.0
1986-01-25 15:39:47.680 ,6,0,0.,24.0,0.,24.0,0.,24.0,0.,24.0
1986-01-25 15:40:11.680 ,5,1,0.,24.0,0.,24.0,0.,24.0,0.,24.0
1986-01-25 15:40:35.680 ,5,0,0.,24.0,1.,24.0,0.,24.0,0.,24.0
1986-01-25 15:40:59.680 ,4,1,0.,24.0,0.,24.0,0.,24.0,0.,24.0
1986-01-25 15:41:23.680 ,4,0,0.,24.0,0.,24.0,0.,24.0,0.,24.0
1986-01-25 15:41:47.680 ,3,1,0.,24.0,0.,24.0,0.,24.0,0.,24.0
1986-01-25 15:42:11.680 ,3,0,0.,24.0,0.,24.0,0.,24.0,0.,24.0
1986-01-25 15:42:35.680 ,2,1,0.,24.0,0.,24.0,0.,24.0,0.,24.0
1986-01-25 15:42:59.680 ,2,0,0.,24.0,0.,24.0,0.,24.0,0.,24.0
1986-01-25 15:43:23.680 ,1,1,0.,24.0,0.,24.0,0.,24.0,0.,24.0
1986-01-25 15:43:47.680 ,1,0,0.,24.0,0.,24.0,0.,24.0,0.,24.0
1986-01-25 15:44:11.680 ,0,1,0.,24.0,0.,24.0,0.,24.0,0.,24.0
1986-01-25 15:44:35.680 ,0,0,0.,24.0,0.,24.0,0.,24.0,0.,24.0
1986-01-25 15:44:59.680 ,0,1,0.,24.0,0.,24.0,0.,24.0,0.,24.0
1986-01-25 15:45:23.680 ,0,0,0.,24.0,0.,24.0,0.,24.0,0.,24.0
1986-01-25 15:45:47.680 ,1,1,0.,24.0,0.,24.0,0.,24.0,0.,24.0
1986-01-25 15:46:11.680 ,1,0,0.,24.0,0.,24.0,0.,24.0,0.,24.0
1986-01-25 15:46:35.680 ,2,1,0.,24.0,0.,24.0,0.,24.0,0.,24.0
1986-01-25 15:46:59.680 ,2,0,0.,24.0,0.,24.0,0.,24.0,0.,24.0
1986-01-25 15:47:23.680 ,3,1,0.,24.0,0.,24.0,0.,24.0,0.,24.0
1986-01-25 15:47:47.680 ,3,0,0.,24.0,0.,24.0,0.,24.0,0.,24.0
1986-01-25 15:48:11.680 ,4,1,0.,24.0,0.,24.0,0.,24.0,0.,24.0
1986-01-25 15:48:35.680 ,4,0,0.,24.0,0.,24.0,0.,24.0,0.,24.0
1986-01-25 15:48:59.680 ,5,1,0.,24.0,0.,24.0,0.,24.0,0.,24.0
1986-01-25 15:49:23.680 ,5,0,0.,24.0,0.,24.0,0.,24.0,0.,24.0
1986-01-25 15:49:47.680 ,6,1,1.,24.0,0.,24.0,0.,24.0,0.,24.0
1986-01-25 15:50:11.680 ,6,0,0.,24.0,0.,24.0,0.,24.0,0.,24.0
1986-01-25 15:50:35.680 ,7,1,8.,24.0,0.,24.0,0.,24.0,0.,24.0
1986-01-25 15:50:59.680 ,7,0,29.,24.0,0.,24.0,0.,24.0,0.,24.0
1986-01-25 15:51:23.680 ,7,1,24.,24.0,0.,24.0,0.,24.0,0.,24.0
1986-01-25 15:51:47.680 ,7,0,34.,24.0,0.,24.0,0.,24.0,0.,24.0
1986-01-25 15:52:11.680 ,6,1,25.,24.0,0.,24.0,0.,24.0,0.,24.0
1986-01-25 15:52:35.680 ,6,0,0.,24.0,0.,24.0,0.,24.0,0.,24.0
1986-01-25 15:52:59.680 ,5,1,0.,24.0,0.,24.0,0.,24.0,0.,24.0
1986-01-25 15:53:23.680 ,5,0,0.,24.0,0.,24.0,0.,24.0,0.,24.0
1986-01-25 15:53:47.680 ,4,1,0.,24.0,0.,24.0,0.,24.0,0.,24.0
1986-01-25 15:54:11.680 ,4,0,0.,24.0,0.,24.0,0.,24.0,0.,24.0
1986-01-25 15:54:35.680 ,3,1,0.,24.0,0.,24.0,0.,24.0,0.,24.0
1986-01-25 15:54:59.680 ,3,0,0.,24.0,0.,24.0,0.,24.0,0.,24.0
1986-01-25 15:55:23.680 ,2,1,0.,24.0,0.,24.0,0.,24.0,0.,24.0
1986-01-25 15:55:47.680 ,2,0,0.,24.0,0.,24.0,0.,24.0,0.,24.0
1986-01-25 15:56:11.680 ,1,1,0.,24.0,1.,24.0,0.,24.0,0.,24.0
1986-01-25 15:56:35.680 ,1,0,0.,24.0,0.,24.0,0.,24.0,0.,24.0
1986-01-25 15:56:59.680 ,0,1,0.,24.0,1.,24.0,0.,24.0,0.,24.0
1986-01-25 15:57:23.680 ,0,0,0.,24.0,0.,24.0,0.,24.0,0.,24.0
1986-01-25 15:57:47.680 ,0,1,0.,24.0,0.,24.0,0.,24.0,0.,24.0
1986-01-25 15:58:11.680 ,0,0,0.,24.0,0.,24.0,0.,24.0,0.,24.0
1986-01-25 15:58:35.680 ,1,1,0.,24.0,0.,24.0,0.,24.0,0.,24.0
1986-01-25 15:58:59.680 ,1,0,0.,24.0,0.,24.0,0.,24.0,0.,24.0
1986-01-25 15:59:23.680 ,2,1,0.,24.0,0.,24.0,0.,24.0,0.,24.0
1986-01-25 15:59:47.680 ,2,0,0.,24.0,0.,24.0,0.,24.0,0.,24.0
1986-01-25 16:00:11.680 ,3,1,0.,24.0,0.,24.0,0.,24.0,0.,24.0
1986-01-25 16:00:35.680 ,3,0,0.,24.0,0.,24.0,0.,24.0,0.,24.0
1986-01-25 16:00:59.680 ,4,1,0.,24.0,1.,24.0,0.,24.0,0.,24.0
1986-01-25 16:01:23.680 ,4,0,0.,24.0,0.,24.0,0.,24.0,0.,24.0
1986-01-25 16:01:47.680 ,5,1,0.,24.0,0.,24.0,0.,24.0,0.,24.0
1986-01-25 16:02:11.680 ,5,0,0.,24.0,0.,24.0,0.,24.0,0.,24.0
1986-01-25 16:02:35.670 ,6,1,0.,24.0,1.,24.0,0.,24.0,0.,24.0
1986-01-25 16:02:59.670 ,6,0,0.,24.0,0.,24.0,0.,24.0,0.,24.0
1986-01-25 16:03:23.670 ,7,1,6.,24.0,0.,24.0,0.,24.0,0.,24.0
1986-01-25 16:03:47.670 ,0,0,27.,24.0,0.,24.0,0.,24.0,0.,24.0
1986-01-25 16:04:45.870 ,0,0,39.,24.0,0.,24.0,0.,24.0,0.,24.0
1986-01-25 16:05:51.270 ,0,0,,0,,0,,0,,0
1986-01-25 16:06:11.670 ,0,0,0.,24.0,0.,24.0,0.,24.0,0.,24.0
1986-01-25 16:06:35.670 ,4,1,0.,24.0,0.,24.0,0.,24.0,0.,24.0
1986-01-25 16:06:59.670 ,4,0,0.,24.0,0.,24.0,0.,24.0,0.,24.0
1986-01-25 16:07:23.670 ,3,1,0.,24.0,0.,24.0,0.,24.0,0.,24.0
1986-01-25 16:07:47.670 ,3,0,1.,24.0,0.,24.0,0.,24.0,0.,24.0
1986-01-25 16:08:11.670 ,2,1,0.,24.0,0.,24.0,0.,24.0,0.,24.0
1986-01-25 16:08:35.670 ,2,0,0.,24.0,0.,24.0,0.,24.0,0.,24.0
1986-01-25 16:08:59.670 ,1,1,0.,24.0,0.,24.0,0.,24.0,0.,24.0
1986-01-25 16:09:23.670 ,1,0,0.,24.0,0.,24.0,0.,24.0,0.,24.0
1986-01-25 16:09:47.670 ,0,1,0.,24.0,0.,24.0,0.,24.0,0.,24.0
1986-01-25 16:10:11.670 ,0,0,0.,24.0,0.,24.0,0.,24.0,0.,24.0
1986-01-25 16:10:35.670 ,0,1,0.,24.0,0.,24.0,0.,24.0,0.,24.0
1986-01-25 16:10:59.670 ,0,0,1.,24.0,0.,24.0,0.,24.0,0.,24.0
1986-01-25 16:11:23.670 ,1,1,0.,24.0,0.,24.0,0.,24.0,0.,24.0
1986-01-25 16:11:47.670 ,1,0,1.,24.0,0.,24.0,0.,24.0,0.,24.0
1986-01-25 16:12:11.670 ,2,1,0.,24.0,0.,24.0,0.,24.0,0.,24.0
1986-01-25 16:12:35.670 ,2,0,0.,24.0,0.,24.0,0.,24.0,0.,24.0
1986-01-25 16:12:59.670 ,3,1,0.,24.0,0.,24.0,0.,24.0,0.,24.0
1986-01-25 16:13:23.670 ,0,0,,0,,0,,0,,0
1986-01-25 16:13:50.070 ,0,0,,0,,0,,0,,0
1986-01-25 16:14:11.670 ,0,0,,0,,0,,0,,0
1986-01-25 16:14:35.670 ,5,1,0.,24.0,0.,24.0,0.,24.0,0.,24.0
1986-01-25 16:14:59.670 ,5,0,0.,24.0,0.,24.0,0.,24.0,0.,24.0
1986-01-25 16:15:23.670 ,6,1,0.,24.0,0.,24.0,0.,24.0,0.,24.0
1986-01-25 16:15:47.670 ,0,0,,0,,0,,0,,0
1986-01-25 16:16:14.670 ,0,0,,0,,0,,0,,0
1986-01-25 16:16:35.670 ,0,0,29.,24.0,0.,24.0,0.,24.0,0.,24.0
1986-01-25 16:16:59.670 ,7,1,20.,24.0,0.,24.0,0.,24.0,0.,24.0
1986-01-25 16:17:23.670 ,7,0,28.,24.0,0.,24.0,0.,24.0,0.,24.0
1986-01-25 16:17:47.670 ,6,1,21.,24.0,0.,24.0,0.,24.0,0.,24.0
1986-01-25 16:18:11.670 ,6,0,0.,24.0,0.,24.0,0.,24.0,0.,24.0
1986-01-25 16:18:35.670 ,5,1,0.,24.0,0.,24.0,0.,24.0,0.,24.0
1986-01-25 16:18:59.670 ,5,0,0.,24.0,0.,24.0,0.,24.0,0.,24.0
1986-01-25 16:19:23.670 ,4,1,0.,24.0,0.,24.0,0.,24.0,0.,24.0
1986-01-25 16:19:47.670 ,4,0,0.,24.0,2.,24.0,0.,24.0,0.,24.0
1986-01-25 16:20:11.670 ,3,1,0.,24.0,0.,24.0,0.,24.0,0.,24.0
1986-01-25 16:20:35.670 ,3,0,0.,24.0,0.,24.0,0.,24.0,0.,24.0
1986-01-25 16:20:59.670 ,2,1,0.,24.0,0.,24.0,0.,24.0,0.,24.0
1986-01-25 16:21:23.670 ,2,0,0.,24.0,0.,24.0,0.,24.0,0.,24.0
1986-01-25 16:21:47.670 ,1,1,0.,24.0,0.,24.0,0.,24.0,0.,24.0
1986-01-25 16:22:11.670 ,1,0,0.,24.0,0.,24.0,0.,24.0,0.,24.0
1986-01-25 16:22:35.670 ,0,1,0.,24.0,1.,24.0,0.,24.0,0.,24.0
1986-01-25 16:22:59.670 ,0,0,0.,24.0,0.,24.0,0.,24.0,0.,24.0
1986-01-25 16:23:23.670 ,0,1,0.,24.0,0.,24.0,0.,24.0,0.,24.0
1986-01-25 16:23:47.670 ,0,0,0.,24.0,1.,24.0,0.,24.0,0.,24.0
1986-01-25 16:24:11.670 ,1,1,0.,24.0,0.,24.0,0.,24.0,0.,24.0
1986-01-25 16:24:35.670 ,1,0,0.,24.0,0.,24.0,0.,24.0,0.,24.0
1986-01-25 16:24:59.670 ,2,1,0.,24.0,0.,24.0,0.,24.0,0.,24.0
1986-01-25 16:25:23.670 ,2,0,0.,24.0,0.,24.0,0.,24.0,0.,24.0
1986-01-25 16:25:47.670 ,3,1,0.,24.0,0.,24.0,0.,24.0,0.,24.0
1986-01-25 16:26:11.670 ,3,0,1.,24.0,0.,24.0,0.,24.0,0.,24.0
1986-01-25 16:26:35.670 ,4,1,0.,24.0,0.,24.0,0.,24.0,0.,24.0
1986-01-25 16:26:59.670 ,4,0,0.,24.0,0.,24.0,0.,24.0,0.,24.0
1986-01-25 16:27:23.670 ,5,1,0.,24.0,0.,24.0,0.,24.0,0.,24.0
1986-01-25 16:27:47.670 ,5,0,0.,24.0,0.,24.0,0.,24.0,0.,24.0
1986-01-25 16:28:11.670 ,6,1,0.,24.0,0.,24.0,0.,24.0,0.,24.0
1986-01-25 16:28:35.670 ,6,0,0.,24.0,0.,24.0,0.,24.0,0.,24.0
1986-01-25 16:28:59.670 ,7,1,5.,24.0,0.,24.0,0.,24.0,0.,24.0
1986-01-25 16:29:23.670 ,7,0,31.,24.0,0.,24.0,0.,24.0,0.,24.0
1986-01-25 16:29:47.670 ,7,1,35.,24.0,0.,24.0,0.,24.0,0.,24.0
1986-01-25 16:30:11.670 ,7,0,34.,24.0,0.,24.0,0.,24.0,0.,24.0
1986-01-25 16:30:35.670 ,6,1,25.,24.0,0.,24.0,0.,24.0,0.,24.0
1986-01-25 16:30:59.670 ,6,0,0.,24.0,0.,24.0,0.,24.0,0.,24.0
1986-01-25 16:31:23.670 ,5,1,0.,24.0,0.,24.0,0.,24.0,0.,24.0
1986-01-25 16:31:47.670 ,5,0,1.,24.0,0.,24.0,0.,24.0,0.,24.0
1986-01-25 16:32:11.670 ,4,1,0.,24.0,0.,24.0,0.,24.0,0.,24.0
1986-01-25 16:32:35.670 ,4,0,0.,24.0,0.,24.0,0.,24.0,0.,24.0
1986-01-25 16:32:59.670 ,3,1,0.,24.0,0.,24.0,0.,24.0,0.,24.0
1986-01-25 16:33:23.670 ,3,0,0.,24.0,0.,24.0,0.,24.0,0.,24.0
1986-01-25 16:33:47.670 ,2,1,0.,24.0,0.,24.0,0.,24.0,0.,24.0
1986-01-25 16:34:11.670 ,2,0,0.,24.0,0.,24.0,0.,24.0,0.,24.0
1986-01-25 16:34:35.670 ,1,1,0.,24.0,1.,24.0,0.,24.0,0.,24.0
1986-01-25 16:34:59.670 ,1,0,0.,24.0,0.,24.0,0.,24.0,0.,24.0
1986-01-25 16:35:23.670 ,0,1,0.,24.0,0.,24.0,0.,24.0,0.,24.0
1986-01-25 16:35:47.670 ,0,0,0.,24.0,0.,24.0,0.,24.0,0.,24.0
1986-01-25 16:36:11.670 ,0,1,0.,24.0,0.,24.0,0.,24.0,0.,24.0
1986-01-25 16:36:35.670 ,0,0,0.,24.0,0.,24.0,0.,24.0,0.,24.0
1986-01-25 16:36:59.670 ,1,1,0.,24.0,0.,24.0,0.,24.0,0.,24.0
1986-01-25 16:37:23.670 ,1,0,0.,24.0,0.,24.0,0.,24.0,0.,24.0
1986-01-25 16:37:47.670 ,2,1,1.,24.0,0.,24.0,0.,24.0,0.,24.0
1986-01-25 16:38:11.670 ,2,0,0.,24.0,0.,24.0,0.,24.0,0.,24.0
1986-01-25 16:38:35.670 ,3,1,0.,24.0,0.,24.0,0.,24.0,0.,24.0
1986-01-25 16:38:59.670 ,3,0,0.,24.0,0.,24.0,0.,24.0,0.,24.0
1986-01-25 16:39:23.670 ,4,1,0.,24.0,1.,24.0,0.,24.0,0.,24.0
1986-01-25 16:39:47.670 ,4,0,0.,24.0,0.,24.0,0.,24.0,0.,24.0
1986-01-25 16:40:11.670 ,5,1,1.,24.0,0.,24.0,0.,24.0,0.,24.0
1986-01-25 16:40:35.670 ,5,0,0.,24.0,0.,24.0,0.,24.0,0.,24.0
1986-01-25 16:40:59.670 ,6,1,0.,24.0,0.,24.0,0.,24.0,0.,24.0
1986-01-25 16:41:23.670 ,6,0,0.,24.0,0.,24.0,0.,24.0,0.,24.0
1986-01-25 16:41:47.670 ,7,1,8.,24.0,0.,24.0,0.,24.0,0.,24.0
1986-01-25 16:42:11.670 ,7,0,28.,24.0,0.,24.0,0.,24.0,0.,24.0
1986-01-25 16:42:35.670 ,7,1,29.,24.0,0.,24.0,0.,24.0,0.,24.0
1986-01-25 16:42:59.670 ,7,0,27.,24.0,0.,24.0,0.,24.0,0.,24.0
1986-01-25 16:43:23.670 ,6,1,23.,24.0,0.,24.0,0.,24.0,0.,24.0
1986-01-25 16:43:47.670 ,6,0,0.,24.0,0.,24.0,0.,24.0,0.,24.0
1986-01-25 16:44:11.670 ,5,1,0.,24.0,0.,24.0,0.,24.0,0.,24.0
1986-01-25 16:44:35.670 ,5,0,1.,24.0,0.,24.0,0.,24.0,0.,24.0
1986-01-25 16:44:59.670 ,4,1,0.,24.0,0.,24.0,0.,24.0,0.,24.0
1986-01-25 16:45:23.670 ,4,0,0.,24.0,0.,24.0,0.,24.0,0.,24.0
1986-01-25 16:45:47.670 ,3,1,0.,24.0,0.,24.0,0.,24.0,0.,24.0
1986-01-25 16:46:11.670 ,3,0,0.,24.0,0.,24.0,0.,24.0,0.,24.0
1986-01-25 16:46:35.670 ,2,1,0.,24.0,0.,24.0,0.,24.0,0.,24.0
1986-01-25 16:46:59.670 ,2,0,0.,24.0,1.,24.0,0.,24.0,0.,24.0
1986-01-25 16:47:23.670 ,1,1,0.,24.0,0.,24.0,0.,24.0,0.,24.0
1986-01-25 16:47:47.670 ,1,0,0.,24.0,0.,24.0,0.,24.0,0.,24.0
1986-01-25 16:48:11.670 ,0,1,0.,24.0,0.,24.0,0.,24.0,0.,24.0
1986-01-25 16:48:35.670 ,0,0,0.,24.0,0.,24.0,0.,24.0,0.,24.0
1986-01-25 16:48:59.670 ,0,1,0.,24.0,0.,24.0,0.,24.0,0.,24.0
1986-01-25 16:49:23.670 ,0,0,0.,24.0,0.,24.0,0.,24.0,0.,24.0
1986-01-25 16:49:47.670 ,1,1,0.,24.0,1.,24.0,0.,24.0,0.,24.0
1986-01-25 16:50:11.670 ,1,0,0.,24.0,0.,24.0,0.,24.0,0.,24.0
1986-01-25 16:50:35.670 ,2,1,0.,24.0,0.,24.0,0.,24.0,0.,24.0
1986-01-25 16:50:59.670 ,2,0,0.,24.0,0.,24.0,0.,24.0,0.,24.0
1986-01-25 16:51:23.670 ,3,1,1.,24.0,0.,24.0,0.,24.0,0.,24.0
1986-01-25 16:51:47.670 ,3,0,0.,24.0,0.,24.0,0.,24.0,0.,24.0
1986-01-25 16:52:11.670 ,4,1,0.,24.0,0.,24.0,0.,24.0,0.,24.0
1986-01-25 16:52:35.670 ,4,0,0.,24.0,0.,24.0,0.,24.0,0.,24.0
1986-01-25 16:52:59.670 ,5,1,0.,24.0,0.,24.0,0.,24.0,0.,24.0
1986-01-25 16:53:23.670 ,5,0,0.,24.0,0.,24.0,0.,24.0,0.,24.0
1986-01-25 16:53:47.670 ,6,1,0.,24.0,0.,24.0,0.,24.0,0.,24.0
1986-01-25 16:54:11.670 ,6,0,0.,24.0,0.,24.0,0.,24.0,0.,24.0
1986-01-25 16:54:35.670 ,7,1,11.,24.0,0.,24.0,0.,24.0,0.,24.0
1986-01-25 16:54:59.670 ,7,0,23.,24.0,0.,24.0,0.,24.0,0.,24.0
1986-01-25 16:55:23.670 ,7,1,30.,24.0,0.,24.0,0.,24.0,0.,24.0
1986-01-25 16:55:47.670 ,7,0,24.,24.0,0.,24.0,0.,24.0,0.,24.0
1986-01-25 16:56:11.670 ,6,1,22.,24.0,0.,24.0,0.,24.0,0.,24.0
1986-01-25 16:56:35.670 ,6,0,0.,24.0,0.,24.0,0.,24.0,0.,24.0
1986-01-25 16:56:59.670 ,5,1,0.,24.0,0.,24.0,0.,24.0,0.,24.0
1986-01-25 16:57:23.670 ,5,0,0.,24.0,0.,24.0,0.,24.0,0.,24.0
1986-01-25 16:57:47.670 ,4,1,0.,24.0,0.,24.0,0.,24.0,0.,24.0
1986-01-25 16:58:11.670 ,4,0,0.,24.0,0.,24.0,0.,24.0,0.,24.0
1986-01-25 16:58:35.670 ,3,1,0.,24.0,0.,24.0,0.,24.0,0.,24.0
1986-01-25 16:58:59.670 ,3,0,1.,24.0,0.,24.0,0.,24.0,0.,24.0
1986-01-25 16:59:23.670 ,2,1,0.,24.0,0.,24.0,0.,24.0,0.,24.0
1986-01-25 16:59:47.670 ,2,0,0.,24.0,0.,24.0,0.,24.0,0.,24.0
1986-01-25 17:00:11.670 ,1,1,1.,24.0,0.,24.0,0.,24.0,0.,24.0
1986-01-25 17:00:35.670 ,1,0,0.,24.0,0.,24.0,0.,24.0,0.,24.0
1986-01-25 17:00:59.670 ,0,1,1.,24.0,0.,24.0,0.,24.0,0.,24.0
1986-01-25 17:01:23.670 ,0,0,0.,24.0,0.,24.0,0.,24.0,0.,24.0
1986-01-25 17:01:47.670 ,0,1,0.,24.0,0.,24.0,0.,24.0,0.,24.0
1986-01-25 17:02:11.670 ,0,0,0.,24.0,0.,24.0,0.,24.0,0.,24.0
1986-01-25 17:02:35.670 ,1,1,0.,24.0,0.,24.0,0.,24.0,0.,24.0
1986-01-25 17:02:59.670 ,1,0,0.,24.0,0.,24.0,0.,24.0,0.,24.0
1986-01-25 17:03:23.670 ,2,1,0.,24.0,0.,24.0,0.,24.0,0.,24.0
1986-01-25 17:03:47.670 ,2,0,0.,24.0,0.,24.0,0.,24.0,0.,24.0
1986-01-25 17:04:11.670 ,3,1,0.,24.0,0.,24.0,0.,24.0,0.,24.0
1986-01-25 17:04:35.670 ,3,0,0.,24.0,0.,24.0,0.,24.0,0.,24.0
1986-01-25 17:04:59.670 ,4,1,0.,24.0,0.,24.0,0.,24.0,0.,24.0
1986-01-25 17:05:23.670 ,4,0,0.,24.0,0.,24.0,0.,24.0,0.,24.0
1986-01-25 17:05:47.670 ,5,1,0.,24.0,0.,24.0,0.,24.0,0.,24.0
1986-01-25 17:06:11.670 ,5,0,0.,24.0,0.,24.0,0.,24.0,0.,24.0
1986-01-25 17:06:35.670 ,6,1,0.,24.0,0.,24.0,0.,24.0,0.,24.0
1986-01-25 17:06:59.670 ,6,0,0.,24.0,0.,24.0,0.,24.0,0.,24.0
1986-01-25 17:07:23.670 ,7,1,6.,24.0,0.,24.0,0.,24.0,0.,24.0
1986-01-25 17:07:47.670 ,7,0,36.,24.0,0.,24.0,0.,24.0,0.,24.0
1986-01-25 17:08:11.670 ,7,1,31.,24.0,0.,24.0,0.,24.0,0.,24.0
1986-01-25 17:08:35.670 ,7,0,33.,24.0,0.,24.0,0.,24.0,0.,24.0
1986-01-25 17:08:59.670 ,6,1,16.,24.0,0.,24.0,0.,24.0,0.,24.0
1986-01-25 17:09:23.670 ,6,0,0.,24.0,0.,24.0,0.,24.0,0.,24.0
1986-01-25 17:09:47.670 ,5,1,0.,24.0,0.,24.0,0.,24.0,0.,24.0
1986-01-25 17:10:11.670 ,5,0,1.,24.0,0.,24.0,0.,24.0,0.,24.0
1986-01-25 17:10:35.670 ,4,1,0.,24.0,0.,24.0,0.,24.0,0.,24.0
1986-01-25 17:10:59.670 ,4,0,0.,24.0,0.,24.0,0.,24.0,0.,24.0
1986-01-25 17:11:23.670 ,3,1,0.,24.0,0.,24.0,0.,24.0,0.,24.0
1986-01-25 17:11:47.670 ,3,0,0.,24.0,0.,24.0,0.,24.0,0.,24.0
1986-01-25 17:12:11.670 ,2,1,0.,24.0,0.,24.0,0.,24.0,0.,24.0
1986-01-25 17:12:35.670 ,2,0,0.,24.0,0.,24.0,0.,24.0,0.,24.0
1986-01-25 17:12:59.670 ,1,1,0.,24.0,0.,24.0,0.,24.0,0.,24.0
1986-01-25 17:13:23.670 ,1,0,0.,24.0,0.,24.0,0.,24.0,0.,24.0
1986-01-25 17:13:47.670 ,0,1,0.,24.0,0.,24.0,0.,24.0,0.,24.0
1986-01-25 17:14:11.670 ,0,0,0.,24.0,0.,24.0,0.,24.0,0.,24.0
1986-01-25 17:14:35.670 ,0,1,0.,24.0,0.,24.0,0.,24.0,0.,24.0
1986-01-25 17:14:59.670 ,0,0,0.,24.0,0.,24.0,0.,24.0,0.,24.0
1986-01-25 17:15:23.670 ,1,1,0.,24.0,0.,24.0,0.,24.0,0.,24.0
1986-01-25 17:15:47.670 ,1,0,0.,24.0,0.,24.0,0.,24.0,0.,24.0
1986-01-25 17:16:11.670 ,2,1,0.,24.0,0.,24.0,0.,24.0,0.,24.0
1986-01-25 17:16:35.670 ,2,0,0.,24.0,0.,24.0,0.,24.0,0.,24.0
1986-01-25 17:16:59.670 ,3,1,0.,24.0,0.,24.0,0.,24.0,0.,24.0
1986-01-25 17:17:23.670 ,3,0,0.,24.0,0.,24.0,0.,24.0,0.,24.0
1986-01-25 17:17:47.670 ,4,1,0.,24.0,0.,24.0,0.,24.0,0.,24.0
1986-01-25 17:18:11.670 ,4,0,0.,24.0,1.,24.0,0.,24.0,0.,24.0
1986-01-25 17:18:35.670 ,5,1,0.,24.0,0.,24.0,0.,24.0,0.,24.0
1986-01-25 17:18:59.670 ,5,0,0.,24.0,0.,24.0,0.,24.0,0.,24.0
1986-01-25 17:19:23.670 ,6,1,0.,24.0,0.,24.0,0.,24.0,0.,24.0
1986-01-25 17:19:47.670 ,6,0,0.,24.0,0.,24.0,0.,24.0,0.,24.0
1986-01-25 17:20:11.670 ,7,1,7.,24.0,0.,24.0,0.,24.0,0.,24.0
1986-01-25 17:20:35.670 ,7,0,28.,24.0,0.,24.0,0.,24.0,0.,24.0
1986-01-25 17:20:59.670 ,7,1,31.,24.0,0.,24.0,0.,24.0,0.,24.0
1986-01-25 17:21:23.670 ,7,0,31.,24.0,0.,24.0,0.,24.0,0.,24.0
1986-01-25 17:21:47.670 ,6,1,20.,24.0,0.,24.0,0.,24.0,0.,24.0
1986-01-25 17:22:11.670 ,6,0,0.,24.0,0.,24.0,0.,24.0,0.,24.0
1986-01-25 17:22:35.670 ,5,1,0.,24.0,0.,24.0,0.,24.0,0.,24.0
1986-01-25 17:22:59.670 ,5,0,1.,24.0,0.,24.0,0.,24.0,0.,24.0
1986-01-25 17:23:23.670 ,4,1,0.,24.0,0.,24.0,0.,24.0,0.,24.0
1986-01-25 17:23:47.670 ,4,0,0.,24.0,0.,24.0,0.,24.0,0.,24.0
1986-01-25 17:24:11.670 ,3,1,0.,24.0,0.,24.0,0.,24.0,0.,24.0
1986-01-25 17:24:35.670 ,3,0,0.,24.0,0.,24.0,0.,24.0,0.,24.0
1986-01-25 17:24:59.670 ,2,1,0.,24.0,0.,24.0,0.,24.0,0.,24.0
1986-01-25 17:25:23.670 ,2,0,0.,24.0,0.,24.0,0.,24.0,0.,24.0
1986-01-25 17:25:47.670 ,1,1,0.,24.0,0.,24.0,0.,24.0,0.,24.0
1986-01-25 17:26:11.670 ,1,0,0.,24.0,0.,24.0,0.,24.0,0.,24.0
1986-01-25 17:26:35.670 ,0,1,0.,24.0,0.,24.0,0.,24.0,0.,24.0
1986-01-25 17:26:59.670 ,0,0,0.,24.0,0.,24.0,0.,24.0,0.,24.0
1986-01-25 17:27:23.670 ,0,1,0.,24.0,0.,24.0,0.,24.0,0.,24.0
1986-01-25 17:27:47.670 ,0,0,0.,24.0,0.,24.0,0.,24.0,0.,24.0
1986-01-25 17:28:11.670 ,1,1,0.,24.0,0.,24.0,0.,24.0,0.,24.0
1986-01-25 17:28:35.670 ,1,0,0.,24.0,0.,24.0,0.,24.0,0.,24.0
1986-01-25 17:28:59.670 ,2,1,0.,24.0,0.,24.0,0.,24.0,0.,24.0
1986-01-25 17:29:23.670 ,2,0,0.,24.0,0.,24.0,0.,24.0,0.,24.0
1986-01-25 17:29:47.670 ,3,1,0.,24.0,0.,24.0,0.,24.0,0.,24.0
1986-01-25 17:30:11.670 ,3,0,0.,24.0,0.,24.0,0.,24.0,0.,24.0
1986-01-25 17:30:35.670 ,4,1,0.,24.0,0.,24.0,0.,24.0,0.,24.0
1986-01-25 17:30:59.670 ,4,0,0.,24.0,0.,24.0,0.,24.0,0.,24.0
1986-01-25 17:31:23.670 ,5,1,0.,24.0,0.,24.0,0.,24.0,0.,24.0
1986-01-25 17:31:47.670 ,5,0,0.,24.0,0.,24.0,0.,24.0,0.,24.0
1986-01-25 17:32:11.670 ,6,1,0.,24.0,0.,24.0,0.,24.0,0.,24.0
1986-01-25 17:32:35.670 ,6,0,0.,24.0,0.,24.0,0.,24.0,0.,24.0
1986-01-25 17:32:59.670 ,7,1,6.,24.0,0.,24.0,0.,24.0,0.,24.0
1986-01-25 17:33:23.670 ,7,0,34.,24.0,0.,24.0,0.,24.0,0.,24.0
1986-01-25 17:33:47.670 ,7,1,34.,24.0,0.,24.0,0.,24.0,0.,24.0
1986-01-25 17:34:11.670 ,7,0,32.,24.0,0.,24.0,0.,24.0,0.,24.0
1986-01-25 17:34:35.670 ,6,1,20.,24.0,0.,24.0,0.,24.0,0.,24.0
1986-01-25 17:34:59.670 ,6,0,0.,24.0,0.,24.0,0.,24.0,0.,24.0
1986-01-25 17:35:23.670 ,5,1,0.,24.0,0.,24.0,0.,24.0,0.,24.0
1986-01-25 17:35:47.670 ,5,0,0.,24.0,0.,24.0,0.,24.0,0.,24.0
1986-01-25 17:36:11.670 ,4,1,0.,24.0,0.,24.0,0.,24.0,0.,24.0